Location: Radomski Observatory
(40.2854°N, 79.5145°W)
Time: 08:54:46
(UTC-04:00)

Cosmos 1072 Rocket - Visible Passes

Search period start: 24 July 2016 00:00
Search period end: 03 August 2016 00:00
Orbit: 949 x 1008 km, 82.9° (Epoch: 22 July)

Date Brightness Start Highest point End Pass type
(mag) Time Alt. Az. Time Alt. Az. Time Alt. Az.
24 Jul 4.6 03:26:25 39° S 03:28:57 75° E 03:35:22 10° N visible
24 Jul 6.2 05:11:10 10° WSW 05:15:04 17° WNW 05:19:06 10° NNW visible
25 Jul 6.4 02:08:10 17° ESE 02:10:30 20° E 02:14:57 10° NE visible
25 Jul 4.6 03:52:55 38° SW 03:55:20 61° W 04:01:42 10° N visible
26 Jul 5.6 02:34:39 31° ESE 02:36:30 37° E 02:42:17 10° NNE visible
26 Jul 5.4 04:19:24 25° WSW 04:21:55 34° WNW 04:27:41 10° N visible
27 Jul 4.7 03:01:07 51° SSE 03:02:40 68° E 03:09:03 10° NNE visible
27 Jul 6.1 04:45:52 14° W 04:48:42 19° WNW 04:53:06 10° NNW visible
28 Jul 6.4 01:42:49 17° E 01:44:18 18° E 01:48:23 10° NE visible
28 Jul 4.5 03:27:34 52° SW 03:29:02 68° W 03:35:27 10° N visible
29 Jul 5.6 02:09:15 32° ESE 02:10:16 33° E 02:15:54 10° NNE visible
29 Jul 5.2 03:54:00 33° WSW 03:55:35 37° WNW 04:01:30 10° N visible
30 Jul 4.7 02:35:41 57° ESE 02:36:26 61° E 02:42:44 10° NNE visible
30 Jul 6.0 04:20:26 18° W 04:22:20 21° WNW 04:27:02 10° NNW visible
31 Jul 6.5 01:17:21 16° E 01:18:06 16° E 01:21:46 10° NE visible
31 Jul 4.4 03:02:05 69° SW 03:02:45 75° W 03:09:11 10° N visible
31 Jul 6.5 04:47:44 10° WNW 04:49:19 11° WNW 04:50:54 10° NW visible
01 Aug 5.7 01:43:45 30° E 01:44:03 30° E 01:49:28 10° NNE visible
01 Aug 5.1 03:28:29 40° W 03:29:15 41° WNW 03:35:17 10° N visible
02 Aug 4.9 02:10:08 55° E 02:10:10 55° E 02:16:23 10° NNE visible
02 Aug 5.9 03:54:52 22° W 03:55:59 23° WNW 04:00:56 10° NNW visible
